Jamestown, ND

7:11 PM CDT on May 22, 2018 (GMT -0500)
Jamestown Municipal

Weather History for KJMS - July, 2013

Change the Weather History Date:

Tuesday, July 16, 2013

  Actual Average Record
Temperature  
Mean Temperature 81 °F 70 °F  
Max Temperature 95 °F 83 °F 108 °F (1936)
Min Temperature 67 °F 58 °F 40 °F (1911)
Degree Days  
Heating Degree Days 0 1  
Month to date heating degree days 0 16  
Since 1 June heating degree days 85 113  
Since 1 July heating degree days 0 16  
Cooling Degree Days 16 6  
Month to date cooling degree days 134 85  
Year to date cooling degree days 245 185  
Since 1 June cooling degree days 234 165  
Growing Degree Days 30 (Base 50)    
Moisture  
Dew Point 64 °F    
Average Humidity 60    
Maximum Humidity 87    
Minimum Humidity 32    
Precipitation  
Precipitation 0.00 in 0.11 in 3.00 in (1908)
Month to date precipitation 0.20 1.93  
Year to date precipitation 7.55 10.67  
Sea Level Pressure  
Sea Level Pressure 30.04 in    
Wind  
Wind Speed 10 mph (SSW)    
Max Wind Speed 21 mph    
Max Gust Speed 29 mph    
Visibility 10 miles    
Events      
T = Trace of Precipitation, MM = Missing Value Source: NWS Daily Summary

Daily Weather History Graph

Daily Weather History Graph

Search for Another Location

Airport or City:

Astronomy

Jul. 16, 2013 Rise Set
Actual Time 5:56 AM CDT 9:24 PM CDT
Civil Twilight 5:18 AM CDT 10:02 PM CDT
Nautical Twilight 4:28 AM CDT 10:52 PM CDT
Astronomical Twilight 3:22 AM CDT 11:57 PM CDT
Moon 2:58 PM CDT (7/16) 12:38 AM CDT (7/16)
Length of Visible Light 16h 43m
Length of Day
15h 28m
First Quarter, 56% of the Moon is Illuminated
Jul 16
First Quarter
Jul 22
Full
Jul 29
Last Quarter
Aug 6
New
Aug 14
First Quarter

Hourly Weather History & Observations

Time (CDT) Temp. Heat Index Dew Point Humidity Pressure Visibility Wind Dir Wind Speed Gust Speed Precip Events Conditions
12:56 AM 72.0 °F - 66.0 °F 81% 30.01 in 10.0 mi South 11.5 mph 21.9 mph N/A   Clear
1:56 AM 72.0 °F - 64.9 °F 78% 30.00 in 10.0 mi South 13.8 mph - N/A   Clear
2:56 AM 71.1 °F - 64.9 °F 81% 29.99 in 10.0 mi South 11.5 mph - N/A   Scattered Clouds
3:56 AM 70.0 °F - 64.0 °F 81% 29.99 in 10.0 mi South 13.8 mph - N/A   Mostly Cloudy
4:56 AM 69.1 °F - 64.0 °F 84% 30.00 in 10.0 mi South 10.4 mph - N/A   Partly Cloudy
5:56 AM 66.9 °F - 63.0 °F 87% 30.01 in 8.0 mi South 9.2 mph - N/A   Clear
6:56 AM 69.1 °F - 63.0 °F 81% 30.02 in 9.0 mi South 8.1 mph - N/A   Clear
7:56 AM 70.0 °F - 64.0 °F 81% 30.02 in 10.0 mi SSE 9.2 mph - N/A   Overcast
8:56 AM 75.9 °F - 64.9 °F 69% 30.02 in 10.0 mi South 10.4 mph - N/A   Clear
9:56 AM 79.0 °F - 63.0 °F 58% 30.02 in 10.0 mi SSW 12.7 mph - N/A   Clear
10:56 AM 82.9 °F 84.0 °F 63.0 °F 51% 30.04 in 10.0 mi WSW 9.2 mph - N/A   Clear
11:56 AM 86.0 °F 86.8 °F 63.0 °F 46% 30.04 in 10.0 mi WSW 4.6 mph - N/A   Clear
12:56 PM 90.0 °F 90.0 °F 61.0 °F 38% 30.04 in 10.0 mi SW 10.4 mph - N/A   Clear
1:56 PM 93.0 °F 92.3 °F 59.0 °F 32% 30.03 in 10.0 mi SSW 16.1 mph 21.9 mph N/A   Clear
2:56 PM 93.9 °F 93.2 °F 59.0 °F 31% 30.03 in 10.0 mi SSW 15.0 mph 23.0 mph N/A   Clear
3:56 PM 93.9 °F 93.2 °F 59.0 °F 31% 30.03 in 10.0 mi SSW 13.8 mph 24.2 mph N/A   Mostly Cloudy
4:56 PM 93.9 °F 93.6 °F 60.1 °F 32% 30.04 in 10.0 mi SSW 10.4 mph 19.6 mph N/A   Clear
5:56 PM 91.0 °F 90.9 °F 61.0 °F 36% 30.06 in 10.0 mi SSW 13.8 mph - N/A   Mostly Cloudy
6:56 PM 88.0 °F 89.6 °F 64.9 °F 46% 30.04 in 10.0 mi NNW 10.4 mph 17.3 mph N/A   Partly Cloudy
7:56 PM 84.9 °F 88.2 °F 68.0 °F 57% 30.06 in 10.0 mi Calm Calm - N/A   Clear
8:56 PM 80.1 °F 83.6 °F 71.1 °F 74% 30.07 in 10.0 mi ENE 6.9 mph - N/A   Clear
9:56 PM 75.9 °F - 70.0 °F 82% 30.10 in 10.0 mi NNE 3.5 mph - N/A   Clear
10:56 PM 73.0 °F - 68.0 °F 84% 30.12 in 10.0 mi Calm Calm - N/A   Clear
11:56 PM 71.1 °F - 66.9 °F 87% 30.13 in 10.0 mi NNW 10.4 mph - N/A   Clear